Regional Weather Roundup
Issued by NWS

Home | Current Version | Previous Version | Graphics & Text | Print | Product List | Glossary On
Versions: 1 2 3 4 5 6 7 8 9 10 11 12 13 14 15 16 17 18 19 20 21 22 23 24 25 26 27 28 29 30 31 32 33 34 35 36 37 38 39 40 41 42 43 44 45 46 47 48 49 50
000
ASUS43 KIND 310609
RWRIN

WEATHER ROUNDUP FOR INDIANA
NATIONAL WEATHER SERVICE INDIANAPOLIS IN
200 AM EDT SUN AUG 31 2014

NOTE: "FAIR" INDICATES FEW OR NO CLOUDS BELOW 12,000 FEET WITH NO
SIGNIFICANT WEATHER AND/OR OBSTRUCTIONS TO VISIBILITY.

* - STATION DOES NOT REPORT WEATHER SUCH AS PRECIPITATION OR FOG.

+ - STATION NOT QUALITY CONTROLLED BY THE NATIONAL WEATHER SERVICE.
    USE DATA WITH CAUTION...ESPECIALLY DEWPOINT AND RELATIVE
    HUMIDITY OBSERVATIONS.

INZ001>003-010>013-019-020-310700-
NORTHWEST INDIANA

CITY           SKY/WX    TMP DP  RH WIND       PRES   REMARKS
GARY /AIRPORT/ FAIR      71  68  91 S3        29.94R
KNOX *+        CLOUDY    68  65  90 SW7       29.94R
LA PORTE +     FAIR      68  65  92 SW6       29.95R
6HR MIN TEMP:  68; 6HR MAX TEMP:  75;

MICHIGAN CITY+ FAIR      68  66  94 SW3       29.94S
MONTICELLO +   HVY RAIN  66  65  97 SW6       29.97R
RENSSELAER +   FAIR      68  68 100 SW8       29.95F
VALPARAISO     MOCLDY    68  65  90 SW8       29.96R
6HR MIN TEMP:  68; 6HR MAX TEMP:  76; 6HR PCP:  0.21;


$$

LMZ046-743>745-310700-
SOUTHERN LAKE MICHIGAN

STATION/POSITION TIME  TEMP WIND        PRES
                       AIR  DIR/SP/G
                 (UTC) (F)  (DEG/KT/KT) (MB)
MICHIGAN CITY    0600   70  170/ 10/ 14   N/A

$$

INZ004-005-014>016-021>024-310700-
NORTH CENTRAL INDIANA

CITY           SKY/WX    TMP DP  RH WIND       PRES   REMARKS
GOSHEN         CLOUDY    75  70  84 SW6       29.95S
6HR MIN TEMP:  74; 6HR MAX TEMP:  77; 6HR PCP: TRACE;

LOGANSPORT +   RAIN      70  66  88 SW14      29.98R
PERU/GRISSOM   LGT RAIN  72  72 100 SW14G24   29.98R FOG
6HR MIN TEMP:  71; 6HR MAX TEMP:  76; 6HR PCP:  0.12;

ROCHESTER +    RAIN      73  72  94 SW7       29.96S
SOUTH BEND     FAIR      72  67  84 SW9       29.95R
6HR MIN TEMP:  72; 6HR MAX TEMP:  75; 6HR PCP:  0.17;

WARSAW +       CLOUDY    72  70  94 SW3       29.96S

$$

INZ006>009-017-018-025>027-310700-
NORTHEAST INDIANA

CITY           SKY/WX    TMP DP  RH WIND       PRES   REMARKS
ANGOLA *+      CLOUDY    73  66  78 SW8       29.97R
AUBURN +       FAIR      73  68  83 SW7       29.98R
FORT WAYNE     MOCLDY    73  69  87 S13       29.98S
6HR MIN TEMP:  72; 6HR MAX TEMP:  76;

HUNTINGTON +   CLOUDY    73  70  91 S7        29.97S
6HR MIN TEMP:  73; 6HR MAX TEMP:  76;


$$

INZ028-029-035-036-043>045-051>053-310700-
WEST CENTRAL INDIANA

CITY           SKY/WX    TMP DP  RH WIND       PRES   REMARKS
GREENCASTLE +  FAIR      70  68  94 S3        30.01F
LAFAYETTE      CLOUDY    72  69  90 VRB3      29.97S
6HR MIN TEMP:  71; 6HR MAX TEMP:  77;

TERRE HAUTE    CLOUDY    71  68  90 S8        29.99F
6HR MIN TEMP:  71; 6HR MAX TEMP:  76;


$$

INZ030>032-037>040-046>048-054>057-064-065-310700-
CENTRAL INDIANA

CITY           SKY/WX    TMP DP  RH WIND       PRES   REMARKS
CP ATTERBURY + MOCLDY    70  66  88 S3        30.03F
FRANKFORT +    CLOUDY    71  71 100 S7        30.00S
INDIANAPOLIS   MOCLDY    70  67  90 S13       30.00F
6HR MIN TEMP:  70; 6HR MAX TEMP:  76;

-EAGLE CREEK   FAIR      71  66  84 S6        30.00F
6HR MIN TEMP:  71; 6HR MAX TEMP:  76;

KOKOMO *+      MOCLDY    72  66  83 SW12      29.99S
MARION +       FAIR      70  67  92 S7        30.00F FOG
MT COMFORT *+  FAIR      70 N/A N/A S5        30.02F
SHELBYVILLE    CLOUDY    72  68  87 S7        30.02S
6HR MIN TEMP:  72; 6HR MAX TEMP:  77;

ZIONSVILLE +   MOCLDY    72  66  81 S10       30.01F
6HR MIN TEMP:  72; 6HR MAX TEMP:  77;


$$

INZ033-034-041-042-049-050-058-059-310700-
EAST CENTRAL INDIANA

CITY           SKY/WX    TMP DP  RH WIND       PRES   REMARKS
MUNCIE         FAIR      72  66  81 SW10      30.01S
6HR MIN TEMP:  72; 6HR MAX TEMP:  76;


$$

INZ060-061-067>069-081>083-085>088-310700-
SOUTHWEST INDIANA

CITY           SKY/WX    TMP DP  RH WIND       PRES   REMARKS
EVANSVILLE     FAIR      72  70  93 S5        30.00F
6HR MIN TEMP:  71; 6HR MAX TEMP:  73; 6HR PCP:  0.01;

WASHINGTON +   CLOUDY    71  71 100 S6        29.99F
6HR MIN TEMP:  70; 6HR MAX TEMP:  73;


$$

INZ062-063-066-070>080-084-089>092-310700-
SOUTH CENTRAL AND SOUTHEAST INDIANA

CITY           SKY/WX    TMP DP  RH WIND       PRES   REMARKS
BEDFORD +      CLOUDY    70  66  88 CALM      30.02
BLOOMINGTON    CLOUDY    70  68  93 S3        30.02F
6HR MIN TEMP:  69; 6HR MAX TEMP:  74;

SEYMOUR +      CLOUDY    72  63  73 CALM      30.03

$$



USA.gov is the U.S. government's official web portal to all federal, state and local government web resources and services.